Content
SEND FEEDBACK

Daily
Averages
Monthly
Summary
United States of America

ANN ARBOR, MICHIGAN


Home > North America > United States > Michigan
Elevation: 759 feet     Latitude: 42 17N     Longitude: 083 43W

WEATHER
 
SELECT A DAY
Number of Records: 207,020;   Date Range: 1/1/95 - 10/21/14
 
SHARE

PRINT THIS DATA

[ ← Previous Day ]
WEATHER ALMANAC - SEPTEMBER 15, 2013
[ Next Day → ]
[ °C ]   °F
Weather ElementAverageHighLow
Temperature46 °F64.9 °F (3:53 pm)37.4 °F (4:10 am)
Dewpoint43.3 °F54 °F (6:53 pm)37.4 °F (2:51 am)
Humidity91.2 %100 % (1:21 am)56 % (3:53 pm)
Barometer30.10 in30.14 in (7:53 am)30.07 in (3:53 pm)
Wind Speed1.1 mph11.5 mph (4:53 pm)
Weather ElementAverage
Visibility4.8 mi
Wind DirectionNE (41.4 °)

Weather ElementTotal
Precipitation0.05 in
Heating Degree Days13.9 (Base 65)
Growing Degree Days1.2 (Base 50)
Averaged from 56 records on September 15, 2013
WEATHER CONDITIONS BREAKOUT
WIND DIRECTION BREAKOUT
WEATHER BY HOUR - SEPTEMBER 15, 2013
[ °C ]   °F
Local TimeTemperatureDewpointHumidityBarometerVisibilityWind DirectionWind SpeedGust SpeedPrecipitationEventsConditions
1:21 AM42.8 °F42.8 °F100 %30.10 in1.2 miCalmClear
1:29 AM44.6 °F42.8 °F93 %30.10 in2.5 miCalmClear
1:36 AM44.6 °F42.8 °F93 %30.10 in8.0 miCalmClear
1:53 AM42.1 °F41.0 °F96 %30.10 in10.0 miCalmClear
2:00 AM41.0 °F39.2 °F93 %30.09 in1.5 miCalmClear
2:07 AM42.8 °F39.2 °F87 %30.09 in0.8 miCalmClear
2:24 AM44.6 °F42.8 °F93 %30.09 in1.5 miCalmClear
2:26 AM44.6 °F42.8 °F93 %30.09 in4.0 miCalmClear
2:48 AM39.2 °F39.2 °F100 %30.10 in1.8 miCalmClear
2:51 AM39.2 °F37.4 °F93 %30.10 in0.8 miCalmClear
2:53 AM39.0 °F37.9 °F96 %30.11 in0.5 miCalmClear
3:04 AM42.8 °F39.2 °F87 %30.10 in2.0 miCalmClear
3:11 AM42.8 °F41.0 °F93 %30.10 in10.0 miCalmClear
3:15 AM42.8 °F41.0 °F93 %30.09 in1.2 miCalmClear
3:22 AM39.2 °F39.2 °F100 %30.09 in0.2 miCalmClear
3:48 AM42.8 °F42.8 °F100 %30.09 in1.8 miCalmClear
3:53 AM41.0 °F41.0 °F100 %30.10 in10.0 miCalmClear
3:57 AM39.2 °F39.2 °F100 %30.09 in1.0 miCalm
4:04 AM39.2 °F39.2 °F100 %30.09 in0.5 miCalm
4:10 AM37.4 °F37.4 °F100 %30.09 in1.0 miCalmClear
4:13 AM39.2 °F39.2 °F100 %30.09 in3.0 miCalmClear
4:16 AM39.2 °F39.2 °F100 %30.09 in1.2 miCalmPartly Cloudy
4:23 AM41.0 °F39.2 °F93 %30.09 in0.2 miCalm
4:31 AM41.0 °F39.2 °F93 %30.09 in1.2 miCalmClear
4:33 AM41.0 °F39.2 °F93 %30.09 in2.5 miCalmClear
4:41 AM39.2 °F39.2 °F100 %30.09 in3.0 miCalmClear
4:53 AM42.1 °F41.0 °F96 %30.10 in9.0 miCalmClear
5:15 AM39.2 °F39.2 °F100 %30.10 in1.8 miCalmClear
5:36 AM39.2 °F39.2 °F100 %30.10 in3.0 miCalmClear
5:53 AM41.0 °F39.9 °F96 %30.11 in3.0 miCalmClear
5:55 AM41.0 °F39.2 °F93 %30.10 in1.5 miCalmClear
6:02 AM42.8 °F41.0 °F93 %30.10 in1.2 miWest (280°)3.5 mphClear
6:05 AM42.8 °F41.0 °F93 %30.11 in2.5 miCalmClear
6:12 AM41.0 °F39.2 °F93 %30.11 in4.0 miCalmClear
6:17 AM42.8 °F41.0 °F93 %30.11 in1.8 miCalmClear
6:25 AM39.2 °F39.2 °F100 %30.11 in0.8 miCalmClear
6:53 AM41.0 °F39.9 °F96 %30.12 in0.2 miCalmClear
7:27 AM41.0 °F41.0 °F100 %30.12 in2.5 miCalmClear
7:34 AM41.0 °F41.0 °F100 %30.12 in10.0 miCalmClear
7:53 AM43.0 °F42.1 °F97 %30.14 in8.0 miCalmClear
8:53 AM50.0 °F46.9 °F89 %30.13 in10.0 miSSW (210°)3.5 mphClear
9:53 AM53.1 °F48.9 °F86 %30.12 in10.0 miSSW (200°)3.5 mphClear
10:53 AM57.0 °F48.9 °F74 %30.11 in10.0 miSSW (200°)6.9 mphClear
11:53 AM61.0 °F50.0 °F67 %30.10 in10.0 miSSW (210°)4.6 mphPartly Cloudy
12:53 PM62.1 °F52.0 °F70 %30.10 in10.0 miVariable3.5 mph0.00 inMostly Cloudy
1:53 PM63.0 °F48.9 °F60 %30.10 in10.0 miWSW (240°)5.8 mphOvercast
2:53 PM64.0 °F48.9 °F58 %30.09 in10.0 miCalmOvercast
3:53 PM64.9 °F48.9 °F56 %30.07 in10.0 miWest (260°)3.5 mphOvercast
4:53 PM61.0 °F51.1 °F70 %30.08 in10.0 miNorth (360°)11.5 mph0.01 inRainLight Rain
5:53 PM57.9 °F52.0 °F81 %30.10 in10.0 miNorth (350°)9.2 mph0.01 inRainLight Rain
6:53 PM57.0 °F54.0 °F89 %30.13 in9.0 miNorth (10°)3.5 mph0.02 inRainLight Rain
7:53 PM57.0 °F53.1 °F87 %30.12 in10.0 miCalm0.01 inOvercast
8:53 PM55.0 °F54.0 °F96 %30.12 in10.0 miCalmOvercast
9:53 PM55.0 °F53.1 °F93 %30.13 in8.0 miCalmOvercast
10:53 PM55.0 °F54.0 °F96 %30.13 in6.0 miCalmOvercast
11:53 PM55.0 °F54.0 °F96 %30.13 in6.0 miCalmOvercast
Hourly data recorded from KARB, located miles away from Ann Arbor, Michigan







STORIES FROM OUR PARTNERS